Weather History for Charlevoix, MI

Change the Weather History Date:

Thursday, October 17, 2013

  Actual Average Record
Temperature  
Mean Temperature 47 °F -  
Max Temperature 51 °F 60 °F 74 °F (2012)
Min Temperature 43 °F 43 °F 32 °F (2008)
Degree Days  
Heating Degree Days 18    
Moisture  
Dew Point 40 °F    
Average Humidity 72    
Maximum Humidity 90    
Minimum Humidity 62    
Precipitation  
Precipitation 0.00 in - - ()
Sea Level Pressure  
Sea Level Pressure 29.83 in    
Wind  
Wind Speed 7 mph (WSW)    
Max Wind Speed 15 mph    
Max Gust Speed 16 mph    
Visibility 10 miles    
Events      
Averages and records for this station are not official NWS values.
T = Trace of Precipitation, MM = Missing Value Source: NWS Daily Summary

Daily Weather History Graph

Daily Weather History Graph

Search for Another Location

Airport:

Trip Planner

Search our weather history database for the weather conditions in past years. The results will help you decide how hot, cold, wet, or windy it might be!

Date:

Astronomy

Oct. 17, 2013 Rise Set
Actual Time 8:00 AM EDT 6:51 PM EDT
Civil Twilight 7:30 AM EDT 7:21 PM EDT
Nautical Twilight 6:55 AM EDT 7:55 PM EDT
Astronomical Twilight 6:21 AM EDT 8:30 PM EDT
Moon 6:07 PM EDT (10/17) 6:28 AM EDT (10/17)
Length of Visible Light 11h 51m
Length of Day
10h 51m
Waxing Gibbous, 98% of the Moon is Illuminated
Oct 17
Waxing Gibbous
Oct 18
Full
Oct 26
Last Quarter
Nov 3
New
Nov 10
First Quarter

Hourly Weather History & Observations

Time (EDT) Temp. Windchill Dew Point Humidity Pressure Visibility Wind Dir Wind Speed Gust Speed Precip Events Conditions
12:15 AM 50.0 °F - 41.9 °F 74% 29.88 in 10.0 mi WNW 15.0 mph - N/A   Overcast
12:35 AM 50.0 °F - 41.0 °F 71% 29.88 in 10.0 mi WNW 11.5 mph 16.1 mph N/A   Overcast
12:54 AM 50.0 °F - 40.5 °F 70% 29.88 in 10.0 mi West 11.5 mph - N/A   Overcast
1:15 AM 50.0 °F - 41.4 °F 72% 29.88 in 10.0 mi WNW 11.5 mph - N/A   Overcast
1:34 AM 49.8 °F - 41.0 °F 72% 29.88 in 10.0 mi WNW 9.2 mph - N/A   Overcast
1:54 AM 50.0 °F - 39.9 °F 68% 29.88 in 10.0 mi West 10.4 mph - N/A   Overcast
2:15 AM 50.0 °F - 37.6 °F 62% 29.89 in 10.0 mi WNW 8.1 mph - N/A   Overcast
2:34 AM 50.0 °F - 39.9 °F 68% 29.89 in 10.0 mi WNW 8.1 mph - N/A   Overcast
2:54 AM 49.5 °F - 39.4 °F 68% 29.89 in 10.0 mi West 9.2 mph - N/A   Overcast
3:15 AM 49.1 °F - 39.2 °F 69% 29.89 in 10.0 mi West 9.2 mph - N/A   Overcast
3:34 AM 48.7 °F - 38.3 °F 67% 29.88 in 10.0 mi NW 9.2 mph - N/A   Mostly Cloudy
3:55 AM 48.7 °F - 38.5 °F 68% 29.87 in 10.0 mi NW 6.9 mph - N/A   Overcast
4:15 AM 48.6 °F - 37.6 °F 66% 29.86 in 10.0 mi NNW 9.2 mph - N/A   Mostly Cloudy
4:34 AM 48.2 °F - 37.6 °F 67% 29.86 in 10.0 mi NW 5.8 mph - N/A   Scattered Clouds
4:55 AM 48.2 °F - 35.6 °F 62% 29.86 in 10.0 mi WNW 4.6 mph - N/A   Mostly Cloudy
5:14 AM 48.0 °F - 36.7 °F 65% 29.86 in 10.0 mi WNW 4.6 mph - N/A   Overcast
5:35 AM 47.5 °F - 38.7 °F 71% 29.87 in 10.0 mi WNW 4.6 mph - N/A   Overcast
5:55 AM 46.6 °F - 38.7 °F 74% 29.87 in 10.0 mi Calm Calm - N/A   Overcast
6:14 AM 46.4 °F 44.3 °F 38.5 °F 74% 29.87 in 10.0 mi SW 4.6 mph - N/A   Overcast
6:35 AM 46.4 °F - 40.1 °F 79% 29.87 in 10.0 mi Calm Calm - N/A   Overcast
6:55 AM 45.5 °F 44.2 °F 39.6 °F 80% 29.87 in 10.0 mi SSW 3.5 mph - N/A   Overcast
7:14 AM 45.9 °F - 38.7 °F 76% 29.87 in 10.0 mi Calm Calm - N/A   Overcast
7:35 AM 45.5 °F - 40.1 °F 81% 29.87 in 10.0 mi Calm Calm - N/A   Overcast
7:54 AM 45.5 °F - 40.5 °F 83% 29.87 in 10.0 mi Calm Calm - N/A   Overcast
8:14 AM 45.5 °F - 39.4 °F 79% 29.87 in 10.0 mi Calm Calm - N/A   Overcast
8:35 AM 43.9 °F - 39.7 °F 85% 29.87 in 10.0 mi Calm Calm - N/A   Mostly Cloudy
8:54 AM 44.2 °F - 40.1 °F 85% 29.87 in 10.0 mi Calm Calm - N/A   Clear
9:14 AM 46.8 °F - 39.4 °F 75% 29.88 in 10.0 mi South 3.5 mph - N/A   Mostly Cloudy
9:35 AM 50.0 °F - 38.5 °F 65% 29.87 in 10.0 mi SSW 3.5 mph - N/A   Mostly Cloudy
9:54 AM 49.6 °F - 38.5 °F 65% 29.88 in 10.0 mi South 3.5 mph - N/A   Overcast
10:14 AM 49.3 °F - 39.4 °F 69% 29.87 in 10.0 mi Calm Calm - N/A   Overcast
10:35 AM 50.9 °F - 39.6 °F 65% 29.86 in 10.0 mi SSW 3.5 mph - N/A   Overcast
10:54 AM 51.4 °F - 40.1 °F 65% 29.86 in 10.0 mi WSW 5.8 mph - N/A   Overcast
11:15 AM 50.9 °F - 39.7 °F 66% 29.85 in 10.0 mi West 4.6 mph - N/A   Overcast
11:35 AM 51.1 °F - 40.5 °F 67% 29.85 in 10.0 mi West 4.6 mph - N/A   Overcast
11:54 AM 51.3 °F - 39.6 °F 64% 29.84 in 10.0 mi SW 3.5 mph - N/A   Overcast
12:15 PM 51.1 °F - 39.9 °F 66% 29.84 in 10.0 mi WSW 6.9 mph - N/A   Overcast
12:35 PM 50.2 °F - 39.6 °F 67% 29.84 in 10.0 mi WSW 6.9 mph - N/A   Overcast
12:54 PM 51.1 °F - 39.7 °F 65% 29.83 in 10.0 mi SW 4.6 mph - N/A   Overcast
1:15 PM 50.9 °F - 39.0 °F 64% 29.82 in 10.0 mi SW 6.9 mph - N/A   Overcast
1:34 PM 51.1 °F - 39.7 °F 65% 29.82 in 10.0 mi SW 6.9 mph - N/A   Mostly Cloudy
1:54 PM 50.7 °F - 39.9 °F 67% 29.80 in 10.0 mi WSW 5.8 mph - N/A   Overcast
2:15 PM 50.7 °F - 40.3 °F 67% 29.80 in 10.0 mi West 8.1 mph - N/A   Overcast
2:34 PM 50.5 °F - 40.6 °F 69% 29.80 in 10.0 mi West 6.9 mph - N/A   Overcast
2:55 PM 50.0 °F - 40.3 °F 69% 29.79 in 10.0 mi West 6.9 mph - N/A   Overcast
3:15 PM 50.0 °F - 40.6 °F 70% 29.79 in 10.0 mi SW 3.5 mph - N/A   Overcast
3:34 PM 50.0 °F - 40.5 °F 70% 29.79 in 10.0 mi WSW 4.6 mph - N/A   Overcast
3:55 PM 50.2 °F - 40.6 °F 70% 29.78 in 10.0 mi SW 3.5 mph - N/A   Overcast
4:14 PM 50.5 °F - 39.7 °F 66% 29.78 in 10.0 mi WSW 6.9 mph - N/A   Mostly Cloudy
4:34 PM 50.0 °F - 39.7 °F 68% 29.77 in 10.0 mi WSW 5.8 mph - N/A   Overcast
4:55 PM 50.0 °F - 39.7 °F 68% 29.77 in 10.0 mi WSW 5.8 mph - N/A   Mostly Cloudy
5:14 PM 49.5 °F - 40.1 °F 70% 29.77 in 10.0 mi SW 3.5 mph - N/A   Mostly Cloudy
5:35 PM 49.1 °F - 40.3 °F 72% 29.77 in 10.0 mi Calm Calm - N/A   Overcast
5:54 PM 49.1 °F - 40.8 °F 73% 29.76 in 10.0 mi Calm Calm - N/A   Overcast
6:14 PM 49.3 °F - 41.5 °F 75% 29.77 in 10.0 mi West 4.6 mph - N/A   Overcast
6:35 PM 49.1 °F - 41.2 °F 74% 29.77 in 10.0 mi Calm Calm - N/A   Overcast
6:54 PM 48.2 °F - 41.7 °F 78% 29.77 in 10.0 mi Calm Calm - N/A   Overcast
7:14 PM 47.5 °F - 42.4 °F 83% 29.77 in 10.0 mi Calm Calm - N/A   Overcast
7:35 PM 47.7 °F - 41.5 °F 79% 29.77 in 10.0 mi Calm Calm - N/A   Overcast
7:54 PM 46.6 °F - 42.8 °F 87% 29.78 in 10.0 mi Calm Calm - N/A   Overcast
8:14 PM 46.6 °F - 43.7 °F 90% 29.78 in 10.0 mi Calm Calm - N/A   Overcast
8:35 PM 46.4 °F - 43.2 °F 88% 29.77 in 10.0 mi Calm Calm - N/A   Mostly Cloudy
8:54 PM 46.8 °F - 43.0 °F 87% 29.77 in 10.0 mi WNW 3.5 mph - N/A   Mostly Cloudy
9:15 PM 48.4 °F - 40.1 °F 73% 29.77 in 10.0 mi WNW 4.6 mph - N/A   Mostly Cloudy
9:35 PM 48.4 °F - 40.1 °F 73% 29.77 in 10.0 mi West 5.8 mph - N/A   Mostly Cloudy
9:54 PM 48.2 °F - 40.1 °F 74% 29.78 in 10.0 mi WNW 5.8 mph - N/A   Mostly Cloudy
10:15 PM 47.5 °F - 40.1 °F 76% 29.78 in 10.0 mi SW 3.5 mph - N/A   Mostly Cloudy
10:35 PM 46.4 °F 44.3 °F 39.0 °F 75% 29.78 in 10.0 mi WSW 4.6 mph - N/A   Mostly Cloudy
10:54 PM 47.1 °F - 38.3 °F 71% 29.78 in 10.0 mi WSW 4.6 mph - N/A   Mostly Cloudy
11:15 PM 45.9 °F 43.6 °F 38.3 °F 75% 29.78 in 10.0 mi WSW 4.6 mph - N/A   Mostly Cloudy
11:34 PM 46.0 °F 43.1 °F 37.9 °F 73% 29.78 in 10.0 mi WSW 5.8 mph - N/A   Mostly Cloudy
11:55 PM 46.2 °F 44.1 °F 37.6 °F 72% 29.78 in 10.0 mi SW 4.6 mph - N/A   Mostly Cloudy